Home   Weather   Manassas   Past weeks
Flag for USA

Past Weather in Manassas, Virginia, USA — Yesterday and Last 2 Weeks

Now
86 °F

Sunny.


Feels Like: 91 °F
Forecast: 87 / 65 °F
Wind: 9 mph from West

Location: Manassas Municipal

Current Time: May 26, 2019 at 1:54:37 pm

Latest Report: May 26, 2019 at 11:56 am


Visibility: 10 mi

Pressure: 30.05 "Hg

Humidity: 59%

Dew Point: 70 °F

Location of ManassasLocation

Past Weather in Manassas — Graph

°F

Manassas Temperature Yesterday

Maximum temperature yesterday: 84 °F (at 3:56 pm)
Minimum temperature yesterday: 60 °F (at 1:56 am)
Average temperature yesterday: 71 °F

High & Low Weather Summary for the Past Weeks

 TemperatureHumidityPressure
High90 °F (May 19, 3:56 pm)100% (May 12, 1:56 am)30.32 "Hg (May 12, 1:56 am)
Low40 °F (May 15, 5:56 am)33% (May 15, 2:56 pm)29.74 "Hg (May 12, 9:31 am)
Average65 °F77%29.98 "Hg
* Reported May 11 11:56 am — May 26 11:56 am, Manassas. Weather by CustomWeather, © 2019

Note: Actual official high and low records may vary slightly from our data, if they occured in-between our weather recording intervals... More about our weather records

Advertising

Manassas Weather History for the Previous 24 Hours

Scroll right to see more
 ConditionsComfort  
Time TempWeatherWind HumidityBarometerVisibility
11:56 am
Sun, May 26
86 °FSunny.9 mph59%30.05 "Hg10 mi
10:56 am84 °FSunny.5 mph65%30.05 "Hg10 mi
9:56 am80 °FSunny.No wind76%30.06 "Hg10 mi
8:56 am74 °FSunny.3 mph97%30.07 "Hg10 mi
8:17 am70 °FScattered clouds.No wind100%30.04 "Hg10 mi
7:56 am68 °FFog.No wind100%30.07 "Hg4 mi
7:42 am66 °FFog.No wind100%30.04 "Hg2 mi
7:35 am66 °FFog.No wind100%30.04 "Hg1 mi
6:56 am66 °FFog.No wind96%30.06 "Hg0 mi
6:12 am64 °FFog.No wind100%30.03 "Hg0 mi
6:03 am64 °FFog.No wind100%30.03 "Hg1 mi
5:34 am63 °FFog.5 mph100%30.03 "Hg1 mi
5:24 am64 °FFog.No wind100%30.03 "Hg1 mi
5:04 am64 °FFog.No wind100%30.02 "Hg1 mi
5:01 am64 °FFog.No wind100%30.02 "Hg1 mi
4:37 am64 °FFog.No wind100%30.01 "Hg2 mi
4:14 am64 °FFog.No wind100%30.01 "Hg0 mi
3:35 am66 °FFog.No wind94%30.02 "Hg1 mi
2:56 am67 °FPassing clouds.No wind97%30.05 "Hg8 mi
1:56 am68 °FMostly cloudy.3 mph96%30.04 "Hg10 mi
12:56 am68 °FPassing clouds.7 mph96%30.05 "Hg10 mi
12:07 am70 °FThunderstorms. Overcast.6 mph94%30.06 "Hg10 mi
12:00 am70 °FStrong thunderstorms. Mostly cloudy.8 mph100%30.05 "Hg10 mi
10:56 pm
Sat, May 25
68 °FClear.No wind96%30.09 "Hg10 mi
9:56 pm68 °FPassing clouds.3 mph96%30.09 "Hg10 mi
8:56 pm68 °FLight rain. Partly cloudy.No wind93%30.08 "Hg10 mi
7:56 pm72 °FStrong thunderstorms. Cloudy.9 mph91%30.11 "Hg10 mi
7:24 pm75 °FThundershowers. Mostly cloudy.8 mph78%30.06 "Hg10 mi
6:56 pm77 °FPartly sunny.7 mph71%30.08 "Hg10 mi
5:56 pm81 °FSunny.10 mph65%30.07 "Hg10 mi
4:56 pm82 °FSunny.12 mph63%30.09 "Hg10 mi
3:56 pm84 °FSunny.12 mph57%30.10 "Hg10 mi
2:56 pm83 °FSunny.13 mph57%30.12 "Hg10 mi
Weather by CustomWeather, © 2019

See weather overview